星链-31955 (STARLINK-31955 )

导读

STARLINK-31955是美国太空探索技术公司星链卫星互联网项目的一颗卫星,于2024年6月1日发射。该卫星属于星链星座的组成部分,旨在为全球提供高速低延迟互联网服务,尤其覆盖偏远地区与网络基础设施匮乏区域,进一步扩充了星链星座的规模与服务覆盖能力。

Basic Information
目录编号:
59939
目录名称:
STARLINK-31955
国际标识:
2024-106T
轨道中心:
EARTH
卫星名称:
星链-31955
卫星全名:
星链-31955 (STARLINK-31955 )
卫星状态:
在轨 (已飞行825 天)
发射日期:
2024-06-01 UTC
国别 :
美国 (US)
星等 :
--
Orbit Information
数据来源 国际轨道数据 AOE轨道数据
星历时间 2026-09-03T18:52:25+0800
20小时前
查看轨道信息
2026-08-31T02:00:00+0800
4天前
查看轨道信息
半长轴 6860.396km 6860.824km
偏心率 0.0002346 0.0001708
轨道倾角 43.004° 43.004°
近地点辐角 270.885° 265.001°
升交点赤经 48.235° 69.151°
平近点角 89.173° 224.480°
近地点 480.649km 481.515km
远地点 483.869km 483.859km
周期 94.250分钟 94.259分钟
每日圈数 15.278442 15.27701
Detailed Information
固有亮度:
5
最大亮度:
1.5
卫星平台:
Starlink v2.0 mini
覆盖范围:
全球
运营商:
太空探索技术公司
运营商所在国:
美国
制造商(研发单位):
太空探索技术公司
制造商所在国:
美国
使用方式:
暂无
Satellite Introduction
星链(Starlink)计划是由太空探索技术公司(SpaceX)提出的一个巨型低轨卫星互联网星座项目,计划在2019年至2024年间在太空搭建由约1.2万颗卫星组成的“星链”网络,其中1584颗将部署在地球上空550千米处的近地轨道,并从2020年开始工作。该卫星仍在工作。
2D Orbit Map
3D Orbit Map
Orbit Altitude Analysis Chart
Orbit Inclination Analysis Chart
Orbit Comprehensive Analysis Chart
View Comprehensive Chart
Conjunction Data List
Event ID Objects TCA Miss Dist (km) Collision Risk Probability Collision Risk Index (CRI) Action
CDM_260829-090805-916005-993921
2026-08-29T
09:08:21+0000
0.403 km
远距离
2.54146E-4 高风险 0.83
CDM_260905-073705-878805-993921
2026-09-05T
07:37:58+0000
0.583 km
远距离
1.126923E-4 高风险 0.76
CDM_260901-185005-773905-993921
2026-09-01T
18:50:16+0000
0.622 km
远距离
9.484714E-5 中风险 0.75
CDM_260904-074305-559205-993921
2026-09-04T
07:43:04+0000
0.504 km
远距离
7.720449E-5 中风险 0.73
CDM_260904-204605-650405-993922
2026-09-04T
20:46:38+0000
0.713 km
远距离
5.796679E-5 中风险 0.7
CDM_260827-195805-953105-993921
2026-08-27T
19:58:38+0000
0.483 km
远距离
5.687871E-5 中风险 0.7
CDM_260829-214005-852405-993921
2026-08-29T
21:40:57+0000
0.799 km
远距离
4.193626E-5 中风险 0.67
CDM_260903-055305-993906-703421
2026-09-03T
05:53:12+0000
0.809 km
远距离
2.833817E-5 中风险 0.64
CDM_260904-223005-993906-648221
2026-09-04T
22:30:45+0000
0.747 km
远距离
2.529727E-5 中风险 0.63
CDM_260905-035005-650405-993921
2026-09-05T
03:50:18+0000
0.946 km
远距离
2.310364E-5 中风险 0.62